Date String (YYYY-MM-DD hh:mm:ss) UTC,Instrument flags,Ambient pressure (hPa),Sample flow (lpm),Bypass flow (lpm),Sample temperature (°C),Ambient temperature (°C),ASC tube jacket temperature (°C),LED temperature (°C),Box temperature (°C),Sample RH (%),Span deviation,Mass concentration (μg/m³),Mass concentration (μg/m³),Mass concentration (μg/m³)
DateTimeUTC,F1_M11,P_M11,Q1_M11,Q2_M11,T1_M11,T2_M11,T3_M11,T4_M11,T5_M11,U1_M11,ZSPAN_M11,X2_M11,X0_M11,X1_M11
2021-12-16 07:00:00,,0819.9,5.00,0.00,21.6,21.0,00.0,30.8,23.1,07.0,0000.0,0000.39,0003.35,0000.22
2021-12-16 07:01:00,,0819.9,5.00,0.00,21.7,21.8,00.0,30.8,23.4,07.0,0000.0,0000.42,0004.02,0000.23
2021-12-16 07:02:00,,0819.9,5.00,0.00,21.8,22.7,00.0,30.8,23.8,06.9,0000.0,0000.44,0004.07,0000.23
2021-12-16 07:03:00,,0819.6,4.99,0.00,22.0,23.2,00.0,30.9,24.0,06.8,0000.0,0000.47,0004.27,0000.24
2021-12-16 07:04:00,,0820.0,5.00,0.00,22.0,22.8,00.0,30.9,23.9,06.8,0000.0,0000.48,0004.28,0000.24
2021-12-16 07:05:00,,0820.0,5.01,0.00,22.0,22.4,00.0,30.9,23.7,06.8,0000.0,0000.47,0004.38,0000.24
2021-12-16 07:06:00,,0820.0,4.99,0.00,21.9,22.0,00.0,30.9,23.5,06.9,0000.0,0000.47,0005.01,0000.24
2021-12-16 07:07:00,,0820.2,4.99,0.00,21.9,21.7,00.0,30.9,23.4,06.9,0000.0,0000.46,0003.65,0000.24
2021-12-16 07:08:00,,0820.3,5.02,0.00,21.8,21.5,00.0,30.9,23.3,06.9,0000.0,0000.47,0003.01,0000.23
2021-12-16 07:09:00,,0820.3,4.99,0.00,21.8,21.2,00.0,30.9,23.3,07.0,0000.0,0000.49,0003.04,0000.24
2021-12-16 07:10:00,,0820.1,5.00,0.00,21.7,21.1,00.0,30.8,23.2,07.0,0000.0,0000.49,0003.11,0000.23
2021-12-16 07:11:00,,0820.0,5.02,0.00,21.7,21.0,00.0,30.8,23.2,07.0,0000.0,0000.48,0002.60,0000.23
2021-12-16 07:12:00,,0820.2,5.00,0.00,21.7,20.9,00.0,30.8,23.1,07.0,0000.0,0000.48,0002.11,0000.23
2021-12-16 07:13:00,,0820.0,5.00,0.00,21.6,20.9,00.0,30.8,23.1,07.1,0000.0,0000.49,0002.15,0000.22
2021-12-16 07:14:00,,0820.0,5.01,0.00,21.6,20.8,00.0,30.8,23.0,07.1,0000.0,0000.47,0002.15,0000.22
2021-12-16 07:15:00,,0820.1,4.99,0.00,21.6,21.0,00.0,30.7,23.1,07.1,0000.0,0000.46,0002.19,0000.22
2021-12-16 07:16:00,,0820.2,5.01,0.00,21.7,21.9,00.0,30.8,23.4,07.1,0000.0,0000.48,0002.19,0000.23
2021-12-16 07:17:00,,0820.2,4.99,0.00,21.9,22.8,00.0,30.8,23.8,07.1,0000.0,0000.48,0001.47,0000.23
2021-12-16 07:18:00,,0820.2,5.01,0.00,22.0,23.2,00.0,30.9,24.0,07.1,0000.0,0000.48,0001.54,0000.23
2021-12-16 07:19:00,,0820.2,5.00,0.00,22.1,22.8,00.0,30.9,23.9,07.0,0000.0,0000.47,0001.57,0000.24
2021-12-16 07:20:00,,0820.2,5.00,0.00,22.0,22.4,00.0,30.9,23.7,07.0,0000.0,0000.45,0001.51,0000.23
2021-12-16 07:21:00,,0820.1,4.99,0.00,21.9,22.0,00.0,30.9,23.5,07.0,0000.0,0000.45,0001.45,0000.24
2021-12-16 07:22:00,,0820.0,5.01,0.00,21.9,21.7,00.0,30.9,23.4,07.1,0000.0,0000.46,0001.42,0000.24
2021-12-16 07:23:00,,0820.2,5.01,0.00,21.8,21.4,00.0,30.9,23.2,07.2,0000.0,0000.46,0001.42,0000.24
2021-12-16 07:24:00,,0819.9,4.99,0.00,21.7,21.2,00.0,30.9,23.1,07.3,0000.0,0000.46,0001.44,0000.24
2021-12-16 07:25:00,,0819.9,5.00,0.00,21.6,21.0,00.0,30.8,23.1,07.4,0000.0,0000.48,0001.70,0000.25
2021-12-16 07:26:00,,0819.9,5.00,0.00,21.6,20.8,00.0,30.8,23.1,07.4,0000.0,0000.54,0002.33,0000.25
2021-12-16 07:27:00,,0820.0,5.00,0.00,21.6,20.6,00.0,30.8,23.0,07.5,0000.0,0000.54,0002.23,0000.25
2021-12-16 07:28:00,,0820.0,5.00,0.00,21.5,20.7,00.0,30.7,22.9,07.5,0000.0,0000.57,0002.29,0000.26
2021-12-16 07:29:00,,0820.1,4.99,0.00,21.6,21.5,00.0,30.8,23.2,07.4,0000.0,0000.57,0002.26,0000.26
2021-12-16 07:30:00,,0820.0,5.00,0.00,21.8,22.4,00.0,30.8,23.6,07.4,0000.0,0000.58,0002.47,0000.25
2021-12-16 07:31:00,,0819.9,5.00,0.00,21.9,23.1,00.0,30.9,23.9,07.3,0000.0,0000.58,0003.85,0000.25
2021-12-16 07:32:00,,0819.9,5.00,0.00,22.0,22.9,00.0,30.9,23.9,07.3,0000.0,0000.58,0004.11,0000.25
2021-12-16 07:33:00,,0819.9,4.99,0.00,22.0,22.4,00.0,30.9,23.7,07.3,0000.0,0000.58,0004.10,0000.25
2021-12-16 07:34:00,,0819.9,5.01,0.00,21.9,22.1,00.0,30.9,23.5,07.3,0000.0,0000.59,0004.08,0000.26
2021-12-16 07:35:00,,0820.0,5.00,0.00,21.8,21.7,00.0,30.9,23.3,07.4,0000.0,0000.60,0004.06,0000.26
2021-12-16 07:36:00,,0819.8,5.00,0.00,21.8,21.4,00.0,30.9,23.2,07.4,0000.0,0000.63,0003.86,0000.26
2021-12-16 07:37:00,,0819.8,5.01,0.00,21.7,21.2,00.0,30.8,23.2,07.5,0000.0,0000.58,0004.59,0000.26
2021-12-16 07:38:00,,0819.9,4.99,0.00,21.6,21.0,00.0,30.8,23.1,07.5,0000.0,0000.60,0004.66,0000.26
2021-12-16 07:39:00,,0819.9,4.99,0.00,21.6,20.8,00.0,30.8,23.0,07.5,0000.0,0000.62,0004.73,0000.26
2021-12-16 07:40:00,,0819.9,5.00,0.00,21.5,20.7,00.0,30.7,22.8,07.5,0000.0,0000.67,0004.77,0000.26
2021-12-16 07:41:00,,0819.9,5.01,0.00,21.6,21.3,00.0,30.7,23.1,07.6,0000.0,0000.69,0004.54,0000.27
2021-12-16 07:42:00,,0819.7,5.01,0.00,21.7,22.2,00.0,30.8,23.5,07.5,0000.0,0000.69,0003.12,0000.26
2021-12-16 07:43:00,,0819.7,5.00,0.00,21.9,22.9,00.0,30.8,23.9,07.4,0000.0,0000.72,0003.05,0000.27
2021-12-16 07:44:00,,0819.8,4.99,0.00,22.0,22.9,00.0,30.9,23.9,07.3,0000.0,0000.71,0003.03,0000.27
2021-12-16 07:45:00,,0819.9,5.01,0.00,22.0,22.5,00.0,30.9,23.7,07.4,0000.0,0000.73,0003.11,0000.27
2021-12-16 07:46:00,,0819.6,4.99,0.00,21.9,22.1,00.0,30.9,23.5,07.4,0000.0,0000.74,0004.54,0000.27
2021-12-16 07:47:00,,0819.6,5.00,0.00,21.9,21.7,00.0,30.9,23.4,07.4,0000.0,0000.71,0004.34,0000.27
2021-12-16 07:48:00,,0819.6,4.99,0.00,21.8,21.4,00.0,30.9,23.4,07.3,0000.0,0000.76,0003.05,0000.28
2021-12-16 07:49:00,,0819.8,5.01,0.00,21.8,21.2,00.0,30.8,23.3,07.4,0000.0,0000.82,0003.21,0000.28
2021-12-16 07:50:00,,0819.9,5.00,0.00,21.7,21.0,00.0,30.8,23.2,07.4,0000.0,0000.78,0003.11,0000.27
2021-12-16 07:51:00,,0819.8,5.01,0.00,21.7,21.0,00.0,30.8,23.1,07.5,0000.0,0000.75,0003.09,0000.27
2021-12-16 07:52:00,,0819.7,4.99,0.00,21.8,21.7,00.0,30.8,23.4,07.3,0000.0,0000.73,0003.09,0000.27
2021-12-16 07:53:00,,0819.9,4.99,0.00,21.9,22.5,00.0,30.9,23.8,07.2,0000.0,0000.80,0003.23,0000.28
2021-12-16 07:54:00,,0820.0,4.99,0.00,22.1,23.1,00.0,30.9,24.1,07.2,0000.0,0000.82,0003.30,0000.28
2021-12-16 07:55:00,,0819.8,5.00,0.00,22.1,22.9,00.0,31.0,24.0,07.2,0000.0,0000.81,0003.26,0000.27
2021-12-16 07:56:00,,0819.9,5.02,0.00,22.1,22.5,00.0,31.0,23.8,07.2,0000.0,0000.79,0003.51,0000.27
2021-12-16 07:57:00,,0819.9,5.00,0.00,22.0,22.1,00.0,31.0,23.7,07.3,0000.0,0000.77,0003.36,0000.27
2021-12-16 07:58:00,,0819.9,5.00,0.00,22.0,21.7,00.0,31.0,23.5,07.3,0000.0,0000.76,0003.09,0000.27
2021-12-16 07:59:00,,0819.9,5.01,0.00,21.9,21.4,00.0,31.0,23.4,07.3,0000.0,0000.71,0002.96,0000.26
